Location: 22
(39.7117°N, 89.5929°W)
Time: 08:10:27
(UTC-05:00)

S-56A Canister/Altair - Pass Details

Date: 13 February 2023
Orbit: 638 x 2493 km, 38.9° (Epoch: 25 March)

Event Time Altitude Azimuth Distance (km) Brightness Sun altitude
Rises 14:25:15 0° 265° (W) 3,143 11.2 28.7°
Reaches altitude 10° 14:29:14 10° 232° (SW) 2,462 11.7 28.3°
Maximum altitude 14:31:10 12° 212° (SSW) 2,480 11.9 28.0°
Drops below altitude 10° 14:33:17 10° 193° (SSW) 2,766 11.6 27.8°
Sets 14:38:40 0° 164° (SSE) 4,182 11.7 27.1°
